This is the latest recevied weather packets stored in our database for station/object KD6VPH. If no packets are shown the sender has not sent any weather packets the latest 10 day(s).
| Time | Temp. | Humidity | Pressure | Rain* | Wind** | Luminosity | Snow |
|---|---|---|---|---|---|---|---|
| 1777691720 | 17.22° C | 66% | 1013.6 hPa | 0 mm | - | 18 W/m² | - |
| 1777691121 | 17.78° C | 65% | 1013.6 hPa | 0 mm | - | 28 W/m² | - |
| 1777690520 | 18.33° C | 65% | 1013.3 hPa | 0 mm | - | 40 W/m² | - |
| 1777689921 | 18.33° C | 64% | 1013.2 hPa | 0 mm | - | 39 W/m² | - |
| 1777689321 | 18.89° C | 64% | 1013 hPa | 0 mm | - | 44 W/m² | - |
| 1777688721 | 19.44° C | 63% | 1012.8 hPa | 0 mm | - | 47 W/m² | - |
| 1777688121 | 19.44° C | 62% | 1012.7 hPa | 0 mm | - | 47 W/m² | - |
| 1777687521 | 20° C | 61% | 1012.7 hPa | 0 mm | - | 70 W/m² | - |
| 1777686921 | 20.56° C | 61% | 1012.6 hPa | 0 mm | - | 93 W/m² | - |
| 1777686321 | 20.56° C | 59% | 1012.6 hPa | 0 mm | - | 104 W/m² | - |
| 1777685721 | 21.11° C | 58% | 1012.7 hPa | 0 mm | - | 127 W/m² | - |
| 1777685121 | 21.67° C | 58% | 1012.7 hPa | 0 mm | - | 158 W/m² | - |
| 1777684521 | 22.22° C | 58% | 1012.7 hPa | 0 mm | - | 348 W/m² | - |
| 1777683921 | 22.78° C | 56% | 1013 hPa | 0 mm | - | 236 W/m² | - |
| 1777683321 | 23.33° C | 54% | 1012.8 hPa | 0 mm | - | 482 W/m² | - |
| 1777682721 | 24.44° C | 53% | 1012.8 hPa | 0 mm | - | 220 W/m² | - |
| 1777682121 | 24.44° C | 54% | 1012.8 hPa | 0 mm | - | 598 W/m² | - |
| 1777680921 | 24.44° C | 52% | 1012.8 hPa | 0 mm | - | 800 W/m² | - |
| 1777680321 | 24.44° C | 52% | 1012.7 hPa | 0 mm | - | 902 W/m² | - |
| 1777679721 | 24.44° C | 53% | 1012.8 hPa | 0 mm | - | 288 W/m² | - |
| 1777679121 | 25° C | 52% | 1012.7 hPa | 0 mm | - | 969 W/m² | - |
| 1777678521 | 25.56° C | 53% | 1012.7 hPa | 0 mm | - | 875 W/m² | - |
| 1777677921 | 25.56° C | 51% | 1012.7 hPa | 0 mm | - | 432 W/m² | - |
| 1777677321 | 25.56° C | 50% | 1012.9 hPa | 0 mm | - | 1007 W/m² | - |
| 1777676721 | 25.56° C | 51% | 1013 hPa | 0 mm | - | 1058 W/m² | - |
* Rain latest hour (hover to see other rain measurements)
** Current wind speed in m/s (hover to see current wind gust speed)